This is the latest recevied weather packets stored in our database for station/object IZ5MMH-14. If no packets are shown the sender has not sent any weather packets the latest 10 day(s).
| Time | Temp. | Humidity | Pressure | Rain* | Wind** | Luminosity | Snow |
|---|---|---|---|---|---|---|---|
| 1777620608 | 17.78° C | 39% | 1024.4 hPa | - | - | - | - |
| 1777620008 | 17.78° C | 41% | 1024.4 hPa | - | - | - | - |
| 1777619408 | 17.22° C | 36% | 1024.3 hPa | - | - | - | - |
| 1777618809 | 17.22° C | 41% | 1024.2 hPa | - | - | - | - |
| 1777618208 | 17.22° C | 38% | 1024.4 hPa | - | - | - | - |
| 1777617608 | 17.22° C | 35% | 1024.4 hPa | - | - | - | - |
| 1777617008 | 17.22° C | 35% | 1024.3 hPa | - | - | - | - |
| 1777616408 | 16.67° C | 37% | 1024.3 hPa | - | - | - | - |
| 1777615808 | 16.67° C | 39% | 1024.2 hPa | - | - | - | - |
| 1777615208 | 16.67° C | 38% | 1024.2 hPa | - | - | - | - |
| 1777614608 | 16.11° C | 45% | 1024.2 hPa | - | - | - | - |
| 1777614008 | 15.56° C | 46% | 1024.1 hPa | - | - | - | - |
| 1777613408 | 14.44° C | 50% | 1023.9 hPa | - | - | - | - |
| 1777612808 | 12.78° C | 52% | 1024 hPa | - | - | - | - |
| 1777612208 | 12.22° C | 50% | 1023.9 hPa | - | - | - | - |
| 1777611608 | 12.22° C | 47% | 1023.8 hPa | - | - | - | - |
| 1777611008 | 12.22° C | 47% | 1023.7 hPa | - | - | - | - |
| 1777610408 | 11.67° C | 47% | 1023.7 hPa | - | - | - | - |
| 1777609809 | 11.67° C | 48% | 1023.6 hPa | - | - | - | - |
| 1777609208 | 11.67° C | 45% | 1023.6 hPa | - | - | - | - |
| 1777608608 | 11.67° C | 44% | 1023.4 hPa | - | - | - | - |
| 1777608008 | 11.67° C | 45% | 1023.2 hPa | - | - | - | - |
| 1777607408 | 11.11° C | 46% | 1023.1 hPa | - | - | - | - |
| 1777606808 | 11.67° C | 45% | 1023 hPa | - | - | - | - |
| 1777606208 | 11.67° C | 44% | 1022.9 hPa | - | - | - | - |
* Rain since midnight (hover to see other rain measurements)
** Current wind speed in m/s (hover to see current wind gust speed)